Regional Weather Roundup
Issued by NWS

Home | Current Version | Previous Version | Text Only | Print | Product List | Glossary On
Versions: 1 2 3 4 5 6 7 8 9 10 11 12 13 14 15 16 17 18 19 20 21 22 23 24 25 26 27 28 29 30 31 32 33 34 35 36 37 38 39 40 41 42 43 44 45 46 47 48 49 50
000
ASUS43 KIND 230309
RWRIN

WEATHER ROUNDUP FOR INDIANA
NATIONAL WEATHER SERVICE INDIANAPOLIS IN
1100 PM EDT SAT JUL 22 2017

NOTE: "FAIR" INDICATES FEW OR NO CLOUDS BELOW 12,000 FEET WITH NO
SIGNIFICANT WEATHER AND/OR OBSTRUCTIONS TO VISIBILITY.

* - STATION DOES NOT REPORT WEATHER SUCH AS PRECIPITATION OR FOG.

+ - STATION NOT QUALITY CONTROLLED BY THE NATIONAL WEATHER SERVICE.
    USE DATA WITH CAUTION...ESPECIALLY DEWPOINT AND RELATIVE
    HUMIDITY OBSERVATIONS.

INZ001>003-010>013-019-020-230400-
NORTHWEST INDIANA

CITY           SKY/WX    TMP DP  RH WIND       PRES   REMARKS
GARY /AIRPORT/ PTCLDY    77  70  78 NE7       29.82S
KNOX *+        CLEAR     73  70  88 NE3       29.82S
LA PORTE +     CLEAR     73  69  89 CALM      29.83F
MICHIGAN CITY+ CLEAR     68  68 100 CALM      29.83F
MONTICELLO +   CLEAR     75  74  96 CALM      29.80F
RENSSELAER +   PTCLDY    77  73  88 CALM      29.81F
VALPARAISO     CLEAR     75  71  87 E5        29.83R

$$

LMZ046-743>745-230400-
SOUTHERN LAKE MICHIGAN

STATION/POSITION TIME  TEMP    WIND        PRES    WAVE
                       AIR SEA DIR/SP/G            HT
                 (UTC) (F)     (DEG/KT/KT) (MB)    (FT)
BURNS HARBOR     0240   75      70/  7/  9 1010.5R
MICHIGAN CITY    0240   74      70/  5/  6   N/A
5NW MICH CITY    0250   75 75   80/  6/  8   N/A     1

$$

INZ004-005-014>016-021>024-230400-
NORTH CENTRAL INDIANA

CITY           SKY/WX    TMP DP  RH WIND       PRES   REMARKS
GOSHEN         CLEAR     72  68  87 CALM      29.83S
LOGANSPORT +   PTCLDY    73  72  94 CALM      29.83S
ROCHESTER +    PTCLDY    77  72  83 CALM      29.83S
SOUTH BEND     CLEAR     71  69  93 N5        29.83F
WARSAW +       CLEAR     72  70  94 CALM      29.83S

$$

INZ006>009-017-018-025>027-230400-
NORTHEAST INDIANA

CITY           SKY/WX    TMP DP  RH WIND       PRES   REMARKS
AUBURN +       CLEAR     72  68  88 CALM      29.83F
FORT WAYNE     PTCLDY    75  69  81 NW5       29.83S
HUNTINGTON +   CLEAR     73  71  94 CALM      29.83S
KENDALLVILLE + CLEAR     71  68  90 CALM      29.84F

$$

INZ028-029-035-036-043>045-051>053-230400-
WEST CENTRAL INDIANA

CITY           SKY/WX    TMP DP  RH WIND       PRES   REMARKS
GREENCASTLE +  CLOUDY    77  73  88 CALM      29.86R
LAFAYETTE      PTCLDY    75  74  96 CALM      29.81R
TERRE HAUTE    CLOUDY    79  74  84 VRB3      29.82F THUNDER

$$

INZ030>032-037>040-046>048-054>057-064-065-230400-
CENTRAL INDIANA

CITY           SKY/WX    TMP DP  RH WIND       PRES   REMARKS
FRANKFORT +    MOCLDY    77  75  95 CALM      29.85S
GREENWOOD *+   CLOUDY   N/A N/A N/A SW9       29.86R
INDIANAPOLIS   TSTM      80  75  84 S7        29.84R
-EAGLE CREEK   CLOUDY    81  73  76 MISG      29.83R
KOKOMO +       CLEAR     75  73  93 CALM      29.84S
MARION +       PTCLDY    73  72  94 CALM      29.84S
MT COMFORT *+  CLOUDY    77  75  94 SE3       29.85R
SHELBYVILLE    CLOUDY    78  72  81 S9        29.84R
ZIONSVILLE +   MOCLDY    75  75  99 CALM      29.85R

$$

INZ033-034-041-042-049-050-058-059-230400-
EAST CENTRAL INDIANA

CITY           SKY/WX    TMP DP  RH WIND       PRES   REMARKS
MUNCIE         CLOUDY    78  72  81 SW3       29.84S
RICHMOND +     MOCLDY    73  72  94 S6        29.85F

$$

INZ060-061-067>069-081>083-085>088-230400-
SOUTHWEST INDIANA

CITY           SKY/WX    TMP DP  RH WIND       PRES   REMARKS
EVANSVILLE     CLEAR     88  73  61 S9        29.84R HX  95
HUNTINGBURG *+ MOCLDY    84  74  71 SW8       29.85S

$$

INZ062-063-066-070>080-084-089>092-230400-
SOUTH CENTRAL AND SOUTHEAST INDIANA

CITY           SKY/WX    TMP DP  RH WIND       PRES   REMARKS
BEDFORD +      CLOUDY    84  72  65 N5        29.83S
BLOOMINGTON    CLOUDY    78  75  90 E3        29.85R
MADISON *+     CLOUDY    82  73  74 SW7       29.86R
NORTH VERNON + HVY RAIN  75  73  94 NW9       29.89R
SEYMOUR +      CLOUDY    82  73  74 CALM      29.84R THUNDER

$$




USA.gov is the U.S. government's official web portal to all federal, state and local government web resources and services.